Location: Burkes Observatory
(44.7598°N, 69.4315°W)
Time: 18:49:25
(UTC-04:00)

Daily predictions for brighter satellites

Satellite Brightness Start Highest point End
(mag) Time Altitude Azimuth Time Altitude Azimuth Time Altitude Azimuth
Cosmos 1606 3.9 20:41:44 10° NNE 20:44:59 26° ENE 20:48:12 10° SE
SAR-Lupe-4 4.1 20:43:43 10° SE 20:47:07 44° ENE 20:50:33 10° N
Cosmos 1346 Rocket 2.9 20:43:36 10° NNW 20:47:35 85° W 20:51:35 10° S
Lacrosse 5 rocket 1.6 20:44:23 10° SSW 20:47:38 33° SE 20:50:57 10° ENE
ATLAS 3B R/B 4.5 20:43:52 10° WSW 20:50:42 39° NW 20:57:17 10° NNE
Shenzhou-11 Module 3.9 20:48:32 10° WSW 20:50:53 20° SSW 20:53:14 10° SSE
ATLAS 5 CENTAUR R/B 3.0 20:47:32 10° NNW 20:53:12 48° NE 20:59:23 10° ESE
YAOGAN 6 2.6 20:51:04 10° SSE 20:54:46 84° E 20:58:29 10° N
Cosmos 2346 Rocket 4.4 20:49:24 10° S 20:55:26 83° E 21:01:33 10° N
Cosmos 1939 Rocket 3.4 20:51:48 10° S 20:55:55 66° W 21:00:01 10° NNW
Aureole 1 4.3 20:55:00 10° S 20:57:59 60° ESE 21:01:29 10° NNE
Okean 1-7 3.2 20:56:39 10° N 21:01:02 57° E 21:05:21 10° SSE
Cosmos 1937 Rocket 4.3 20:58:07 10° SW 21:03:10 57° WNW 21:08:15 10° NNE
Aureole 3 3.1 21:00:45 10° SSE 21:03:38 41° E 21:06:29 10° NNE
GPS 2-04 Rocket1 4.1 21:02:40 10° SW 21:05:25 19° S 21:07:35 12° SE
H-2A R/B 3.1 21:01:32 10° SE 21:06:12 31° ENE 21:10:49 10° N
SAR-Lupe-1 4.1 21:05:02 10° SSE 21:08:34 69° ENE 21:12:09 10° N
Cosmos 158 Rocket 4.1 21:03:45 10° NNW 21:08:35 54° ENE 21:12:56 12° SE
ARGOS 3.5 21:06:06 10° SE 21:11:13 49° ENE 21:16:24 10° N
Meteor 1-29 2.9 21:09:06 10° NNE 21:12:38 82° ESE 21:16:07 10° SSW
Cosmos 1703 Rocket 3.8 21:09:14 10° NNW 21:13:39 71° W 21:18:00 10° S
DNEPR-1 R/B 4.1 21:09:10 10° S 21:14:08 44° ESE 21:18:26 10° NE
Meteor 2-3 Rocket 4.4 21:15:00 10° SSW 21:20:38 59° WNW 21:26:15 10° N
Cosmos 1408 2.6 21:18:43 10° S 21:22:23 61° E 21:26:05 10° NNE
Milstar 3 4.3 21:16:42 10° SW 21:25:13 24° S 21:29:45 15° SE
Cosmos 1782 2.8 21:21:25 10° N 21:25:27 89° E 21:29:11 11° S
Cosmos 1733 Rocket 3.9 21:24:43 16° SE 21:27:24 30° E 21:31:12 10° NNE
ERS-1 Rocket 3.1 21:23:47 10° SSE 21:28:49 81° WSW 21:33:53 10° NNW
SL-08 RB Rocket 3.9 21:28:54 16° SSE 21:32:33 59° ENE 21:37:09 10° N
Cosmos 1825 2.1 21:28:52 10° S 21:32:37 77° E 21:36:26 10° NNE
Cosmos 2344 3.8 21:25:49 10° S 21:33:04 48° ESE 21:41:02 10° NE
Cosmos 1869 Rocket 4.0 21:29:57 10° SSW 21:34:15 64° W 21:38:36 10° N
Cosmos 1048 Rocket 4.0 21:30:04 10° NNW 21:35:26 90° ESE 21:39:40 16° SSE
BREEZE-M DEB (TANK) 3.1 21:32:34 10° WNW 21:35:33 78° NNE 21:46:56 10° ESE
Helios 1B rocket 3.6 21:31:56 10° N 21:35:52 45° WNW 21:39:47 10° SW
Cosmos 2227 Rocket 4.4 21:35:19 10° N 21:38:02 13° NE 21:40:46 10° ENE
USA 215 3.3 21:35:07 17° SE 21:40:28 79° SW 21:47:04 10° NW
Cosmos 2219 4.3 21:39:33 10° N 21:44:43 33° NE 21:48:28 16° ESE
MetOp-A 4.4 21:40:51 11° S 21:45:56 69° WSW 21:51:18 10° NNW
Lacrosse 4 Rocket 1.5 21:42:15 10° NNW 21:46:47 86° ENE 21:49:28 24° SSE
Cosmos 1862 3.3 21:43:53 17° S 21:46:50 63° E 21:50:46 10° NNE
ISS -3.1 21:50:59 10° WSW 21:54:11 55° NNW 21:57:25 10° NE
Cosmos 1943 Rocket 2.2 21:48:52 10° SSW 21:54:28 87° WNW 22:00:04 10° NNE
DMSP B5D2-2 4.5 21:49:51 10° NNE 21:54:49 42° E 21:57:39 23° SSE
Terra 2.6 21:54:14 23° ESE 21:56:38 39° ENE 22:01:03 10° N
Gbstr 26 Del rocket 4.5 21:53:03 10° WNW 21:57:24 35° N 22:01:08 10° ENE
Cosmos 2251 Rocket 4.2 21:52:44 10° N 21:57:42 41° ENE 22:00:27 23° ESE
ATLAS CENTAUR R/B 3.4 21:59:57 13° E 21:59:57 13° E 22:00:41 10° ENE
CARTOSAT-1 4.2 21:59:11 26° ESE 22:01:02 40° ENE 22:05:06 10° N
Cosmos 1674 Rocket 3.6 21:58:14 10° N 22:02:33 61° E 22:04:29 30° SSE
Cosmos 1378 Rocket 4.4 21:59:20 10° N 22:03:25 35° ENE 22:04:59 27° ESE
SPOT 1/Viking Rocket 3.5 22:00:53 22° SSE 22:04:18 89° WSW 22:09:33 10° NNW
Cosmos 1340 3.6 22:02:40 10° NNW 22:06:19 45° W 22:08:45 19° SSW
CENTAUR R/B 2.7 22:01:05 10° SW 22:07:10 78° NW 22:14:12 10° NE
Cosmos 372 Rocket 4.3 22:02:18 10° SSW 22:07:24 66° WNW 22:12:30 10° NNE
Cosmos 1437 3.1 22:06:49 10° N 22:09:55 45° ENE 22:10:20 42° ESE
Cosmos 1092 Rocket 4.1 22:07:21 23° SSE 22:11:09 57° E 22:17:09 10° NNE
BREEZE M DEB (TANK) 3.6 22:00:35 10° WSW 22:11:15 84° SSE 22:14:37 10° ENE
Nadezhda 4 Rocket 3.9 22:06:49 15° S 22:12:01 82° E 22:18:13 10° N
SPOT 5 3.5 22:08:10 17° S 22:12:11 59° W 22:17:26 10° NNW
COSMOS 2455 4.2 22:07:13 10° WSW 22:12:50 41° NW 22:18:32 10° NNE
Cosmos 2369 Rocket 3.8 22:11:09 10° WSW 22:16:22 37° NW 22:21:39 10° NNE
GEOS 3 Rocket 3.7 22:13:40 28° SE 22:16:27 71° NE 22:21:41 10° NW
H-2A R/B 2.8 22:16:52 30° ESE 22:18:00 37° ENE 22:21:50 10° N
Cosmos 405 Rocket 4.0 22:15:12 10° NNE 22:18:16 24° ENE 22:18:42 23° E
Okean 3 3.4 22:21:58 10° N 22:26:09 67° E 22:27:17 44° SE
Lacrosse 5 rocket 2.8 22:23:29 10° W 22:26:48 33° NNW 22:30:13 10° NE
IGS 5A 3.4 22:29:14 45° SSE 22:30:26 78° ENE 22:34:37 10° N
Spot 4 4.5 22:30:06 33° ESE 22:31:39 43° ENE 22:36:14 10° N
CZ-4 R/B 4.3 22:27:42 10° NNE 22:32:02 37° E 22:32:36 36° ESE
Cosmos 2297 Rocket 3.8 22:28:44 10° N 22:33:20 25° NE 22:36:27 16° E
ATLAS 5 CENTAUR R/B 3.3 22:32:21 10° NW 22:37:56 40° WSW 22:41:08 24° S
Cosmos 1908 Rocket 3.5 22:38:32 44° S 22:39:54 80° E 22:44:22 10° N
Cosmos 1867 3.5 22:34:36 10° NW 22:40:05 79° WSW 22:42:05 40° SSE
Cosmos 1441 Rocket 4.3 22:40:51 10° N 22:44:20 31° ENE 22:44:27 31° ENE
H-2A R/B 3.2 22:42:09 19° SSW 22:45:29 39° W 22:50:28 10° NNW
Cosmos 494 Rocket 4.2 22:42:21 10° NNW 22:47:31 63° WSW 22:49:23 38° S
Okean 2 Rocket 3.7 22:48:28 38° E 22:48:37 39° E 22:52:45 10° NNE
Cosmos 1656 Rocket 3.9 22:48:00 11° SW 22:53:09 66° WNW 22:58:42 10° NNE
CZ-2C R/B 4.2 22:54:36 25° E 22:55:58 29° ENE 23:00:12 10° N
deb Chang Zheng 4 3.5 22:55:03 10° NNE 22:59:30 70° ESE 23:00:04 61° SSE
Cosmos 2195 Rocket 4.5 22:58:08 32° S 23:01:18 87° W 23:07:40 10° N
Meteor 1-20 Rocket 4.2 23:01:57 45° SSE 23:03:40 69° E 23:09:19 10° NNE
PSLV R/B 4.4 23:05:23 36° NNW 23:05:23 36° NNW 23:07:11 10° NNW
CZ-4B R/B 3.4 22:59:34 10° NNE 23:04:29 60° ESE 23:05:09 54° SE
Cosmos 1782 Rocket 3.4 23:06:36 65° S 23:07:15 90° SW 23:11:40 10° N
APEX 3.8 23:03:28 10° NNW 23:07:57 48° ENE 23:08:14 47° ENE
Meteor 1-25 Rocket 4.2 23:07:14 43° S 23:09:15 84° E 23:15:08 10° NNE
Sich 1 Rocket 4.3 23:12:21 34° SW 23:13:50 49° WNW 23:18:08 10° N
Cosmos 1655 Rocket 3.9 23:13:16 43° S 23:15:29 83° E 23:21:45 10° N
CZ-2C R/B 3.2 23:18:01 10° NNE 23:22:52 38° E 23:22:58 38° E
Cosmos 2227 Rocket 2.4 23:17:39 10° NNW 23:23:17 63° ENE 23:24:44 47° ESE
Lacrosse 4 Rocket 4.1 23:23:43 10° W 23:24:46 11° WSW 23:25:48 10° WSW
Cosmos 1975 Rocket 3.5 23:23:11 10° NNW 23:27:33 54° W 23:28:04 51° WSW
Cosmos 2219 3.9 23:23:34 10° NW 23:29:00 44° WSW 23:30:23 37° SW
Cosmos 2026 Rocket 4.3 23:28:05 32° SW 23:30:57 60° WNW 23:37:10 10° N
ISS -1.4 23:28:24 10° WNW 23:31:08 24° N 23:33:53 10° NE
Cosmos 1656 4.5 23:31:53 33° E 23:31:53 33° E 23:36:26 10° NE
Cosmos 1633 3.2 23:33:17 52° N 23:33:17 52° N 23:36:05 10° N
CZ-4C R/B 4.0 23:26:39 10° NNW 23:32:55 36° NE 23:39:22 12° E
ALOS 2 3.3 23:32:47 41° ENE 23:32:58 41° ENE 23:37:06 10° N
Cosmos 1812 3.9 23:29:43 10° NNW 23:33:15 34° W 23:33:20 34° W
Terra 3.4 23:33:08 22° WSW 23:34:29 25° W 23:38:23 10° NW
ATLAS CENTAUR R/B 2.0 23:36:09 44° W 23:36:48 50° NW 23:40:32 10° NNE
Cosmos 2151 Rocket 3.5 23:44:35 75° ENE 23:44:35 75° ENE 23:48:50 10° NNE
Meteor 1-11 Rocket 3.9 23:43:43 53° SE 23:44:38 59° E 23:50:29 10° NNE
Gbstr 26 Del rocket 3.1 23:40:29 10° WNW 23:44:06 62° NW 23:44:06 62° NW
ARGOS Delta rocket 4.3 23:41:06 10° N 23:45:27 49° WNW 23:46:12 44° WSW
Cosmos 1536 4.0 23:47:21 33° ENE 23:47:21 33° ENE 23:50:14 10° NNE
Cosmos 2369 3.7 23:46:56 59° SE 23:47:22 61° ESE 23:52:59 10° NNE
CZ-4C R/B 4.2 23:50:08 44° W 23:50:08 44° W 23:54:01 10° NNW
Cosmos 1980 Rocket 3.8 23:51:05 20° E 23:51:05 20° E 23:54:29 10° NE
Meteor 2-4 Rocket 3.7 23:45:12 10° N 23:50:31 61° ENE 23:51:11 56° ESE
Cosmos 1536 Rocket 3.5 23:46:49 10° N 23:51:02 80° NNE 23:51:02 80° NNE
S3M 4.1 23:45:19 10° NNW 23:51:22 64° W 23:52:56 48° SSW
Cosmos 883 Rocket 4.5 23:45:41 10° N 23:51:53 71° E 23:53:10 55° SE
H-2A R/B 3.9 23:53:59 20° W 23:54:10 20° W 23:57:12 10° NW
Okean 1 4.4 23:51:28 10° NNW 23:54:53 36° W 23:54:53 36° W
